LLM145 USTR-USMU

Flight info

Callsign LLM145
Flight time N/A
Altitude 35000
Route K0826F350 LAKED L165 LUGIK A925 HMN R124 LARTU W77 REMKI
Aircraft A320/M-SDE3FGHIRWY/LB1

Departure

Time 2026-04-27 20:21
Airport Roshchino International Airport (USTR)

Arrival

Time N/A
Airport Novy Urengoy Airport (USMU)
Time Latitude Longitude Altitude Speed Heading
2026-04-27 19:22 57.18106 65.34752 337 ft 0 kts 46°
2026-04-27 20:05 57.18104 65.34747 340 ft 3 kts 45°
2026-04-27 20:06 57.18084 65.34714 340 ft 4 kts 37°
2026-04-27 20:06 57.18062 65.34687 335 ft 4 kts 21°
2026-04-27 20:06 57.18038 65.34679 340 ft 4 kts 336°
2026-04-27 20:06 57.18030 65.34687 340 ft 0 kts 315°
2026-04-27 20:10 57.18043 65.34664 337 ft 9 kts 315°
2026-04-27 20:10 57.18100 65.34560 338 ft 13 kts 314°
2026-04-27 20:10 57.18143 65.34478 340 ft 14 kts 314°
2026-04-27 20:11 57.18218 65.34339 339 ft 16 kts 315°
2026-04-27 20:11 57.18305 65.34179 339 ft 19 kts 315°
2026-04-27 20:11 57.18401 65.34001 335 ft 14 kts 315°
2026-04-27 20:11 57.18474 65.33867 340 ft 16 kts 315°
2026-04-27 20:12 57.18558 65.33711 340 ft 18 kts 315°
2026-04-27 20:12 57.18617 65.33531 340 ft 15 kts 275°
2026-04-27 20:12 57.18598 65.33328 337 ft 18 kts 233°
2026-04-27 20:12 57.18501 65.33138 332 ft 23 kts 229°
2026-04-27 20:13 57.18474 65.32845 331 ft 25 kts 268°
2026-04-27 20:13 57.18467 65.32500 328 ft 29 kts 268°
2026-04-27 20:13 57.18462 65.32138 335 ft 27 kts 269°
2026-04-27 20:13 57.18459 65.31948 341 ft 13 kts 268°
2026-04-27 20:14 57.18483 65.31834 353 ft 10 kts
2026-04-27 20:14 57.18536 65.31927 336 ft 0 kts 45°
2026-04-27 20:14 57.18537 65.31927 338 ft 0 kts 45°
2026-04-27 20:18 57.18539 65.31932 338 ft 3 kts 45°
2026-04-27 20:18 57.18588 65.31975 331 ft 13 kts 356°
2026-04-27 20:18 57.18636 65.31906 335 ft 0 kts 317°
2026-04-27 20:19 57.18649 65.31883 332 ft 8 kts 317°
2026-04-27 20:19 57.18691 65.31814 338 ft 6 kts 318°
2026-04-27 20:19 57.18710 65.31763 341 ft 9 kts 283°
2026-04-27 20:19 57.18696 65.31708 342 ft 0 kts 229°
2026-04-27 20:20 57.18673 65.31658 344 ft 27 kts 229°
2026-04-27 20:21 57.18390 65.31084 362 ft 91 kts 227°
2026-04-27 20:21 57.17842 65.29975 379 ft 141 kts 228°
2026-04-27 20:21 57.17112 65.28471 601 ft 162 kts 227°
2026-04-27 20:21 57.16388 65.26934 1358 ft 157 kts 230°
2026-04-27 20:22 57.16054 65.24941 1808 ft 184 kts 270°
2026-04-27 20:22 57.16738 65.22692 2089 ft 228 kts 316°
2026-04-27 20:22 57.18314 65.21621 2471 ft 261 kts 357°
2026-04-27 20:22 57.20178 65.22114 3018 ft 281 kts 15°
2026-04-27 20:23 57.22047 65.23342 3839 ft 287 kts 21°
2026-04-27 20:23 57.23905 65.24747 4745 ft 290 kts 21°
2026-04-27 20:23 57.25784 65.26131 5660 ft 292 kts 20°
2026-04-27 20:23 57.27703 65.27457 6554 ft 295 kts 19°
2026-04-27 20:24 57.29648 65.28716 7391 ft 298 kts 18°
2026-04-27 20:24 57.31626 65.29933 8238 ft 300 kts 17°
2026-04-27 20:24 57.33622 65.31127 9067 ft 303 kts 17°
2026-04-27 20:24 57.35639 65.32320 9896 ft 306 kts 17°
2026-04-27 20:25 57.37683 65.33525 10510 ft 315 kts 16°
2026-04-27 20:25 57.39855 65.34798 10696 ft 339 kts 17°
2026-04-27 20:25 57.42173 65.36164 10903 ft 358 kts 17°
2026-04-27 20:25 57.44543 65.37578 11442 ft 365 kts 17°
2026-04-27 20:26 57.46968 65.39048 12053 ft 369 kts 17°
2026-04-27 20:26 57.49427 65.40530 12676 ft 372 kts 17°
2026-04-27 20:26 57.51899 65.42014 13277 ft 377 kts 17°
2026-04-27 20:26 57.54400 65.43518 13942 ft 381 kts 17°
2026-04-27 20:27 57.56940 65.45042 14543 ft 384 kts 16°
2026-04-27 20:27 57.59496 65.46573 15115 ft 387 kts 16°
2026-04-27 20:27 57.62091 65.47967 15676 ft 389 kts
2026-04-27 20:27 57.64757 65.48954 16230 ft 392 kts
2026-04-27 20:28 57.67439 65.49947 16798 ft 395 kts
2026-04-27 20:28 57.70155 65.50955 17366 ft 399 kts
2026-04-27 20:28 57.72880 65.51965 17961 ft 402 kts
2026-04-27 20:28 57.74742 65.52656 18355 ft 404 kts
2026-04-27 20:29 57.78414 65.54023 19070 ft 408 kts
2026-04-27 20:29 57.81206 65.55070 19629 ft 412 kts
2026-04-27 20:29 57.84024 65.56131 20166 ft 415 kts
2026-04-27 20:29 57.86861 65.57199 20757 ft 416 kts
2026-04-27 20:30 57.89705 65.58267 21308 ft 418 kts
2026-04-27 20:30 57.92565 65.59340 21819 ft 420 kts
2026-04-27 20:30 57.95441 65.60422 22302 ft 422 kts
2026-04-27 20:30 57.98337 65.61472 22796 ft 424 kts
2026-04-27 20:31 58.01265 65.62048 23272 ft 425 kts
2026-04-27 20:31 58.04218 65.62562 23737 ft 427 kts
2026-04-27 20:31 58.07183 65.63082 24120 ft 429 kts
2026-04-27 20:31 58.10150 65.63811 24492 ft 434 kts 10°
2026-04-27 20:32 58.12993 65.65900 24848 ft 443 kts 26°
2026-04-27 20:32 58.15698 65.68778 25179 ft 447 kts 26°
2026-04-27 20:32 58.18405 65.71708 25513 ft 450 kts 27°
2026-04-27 20:32 58.21123 65.74678 25856 ft 452 kts 27°
2026-04-27 20:33 58.23821 65.77629 26190 ft 454 kts 27°
2026-04-27 20:33 58.26567 65.80634 26535 ft 456 kts 26°
2026-04-27 20:33 58.29321 65.83646 26940 ft 457 kts 26°
2026-04-27 20:33 58.32079 65.86663 27325 ft 458 kts 26°
2026-04-27 20:34 58.34854 65.89703 27667 ft 460 kts 26°
2026-04-27 20:34 58.37632 65.92749 28009 ft 462 kts 26°
2026-04-27 20:34 58.40445 65.95831 28348 ft 464 kts 26°
2026-04-27 20:34 58.43218 65.98879 28697 ft 465 kts 26°
2026-04-27 20:35 58.46016 66.01960 29155 ft 464 kts 26°
2026-04-27 20:35 58.48809 66.05045 29617 ft 463 kts 26°
2026-04-27 20:35 58.51604 66.08138 30081 ft 463 kts 26°
2026-04-27 20:35 58.54396 66.11227 30460 ft 463 kts 25°
2026-04-27 20:36 58.57188 66.14321 30844 ft 462 kts 25°
2026-04-27 20:36 58.59971 66.17413 31239 ft 462 kts 25°
2026-04-27 20:36 58.62738 66.20499 31701 ft 459 kts 25°
2026-04-27 20:36 58.65461 66.23541 32144 ft 457 kts 25°
2026-04-27 20:37 58.68239 66.26651 32579 ft 456 kts 25°
2026-04-27 20:37 58.70981 66.29724 32984 ft 455 kts 25°
2026-04-27 20:37 58.73681 66.32755 33381 ft 455 kts 25°
2026-04-27 20:37 58.76412 66.35835 33785 ft 454 kts 25°
2026-04-27 20:38 58.79144 66.38917 34187 ft 453 kts 25°
2026-04-27 20:38 58.81869 66.41988 34507 ft 453 kts 25°
2026-04-27 20:38 58.84590 66.45055 34799 ft 453 kts 25°
2026-04-27 20:38 58.87313 66.48127 35062 ft 454 kts 25°
2026-04-27 20:39 58.90050 66.51216 35171 ft 457 kts 25°
2026-04-27 20:39 58.92822 66.54359 35167 ft 464 kts 25°
2026-04-27 20:39 58.98391 66.60735 35155 ft 465 kts 25°
2026-04-27 20:40 59.03918 66.67086 35157 ft 465 kts 25°
2026-04-27 20:40 59.09500 66.73507 35161 ft 465 kts 25°
2026-04-27 20:41 59.15072 66.79923 35155 ft 465 kts 25°
2026-04-27 20:41 59.20638 66.86354 35163 ft 465 kts 25°
2026-04-27 20:42 59.26215 66.92832 35188 ft 465 kts 25°
2026-04-27 20:42 59.31737 66.99269 35196 ft 465 kts 25°
2026-04-27 20:43 59.37288 67.05782 35185 ft 464 kts 25°
2026-04-27 20:43 59.42837 67.12296 35178 ft 465 kts 25°
2026-04-27 20:44 59.48378 67.18843 35173 ft 464 kts 25°
2026-04-27 20:44 59.53918 67.25417 35171 ft 465 kts 25°
2026-04-27 20:45 59.59458 67.32001 35188 ft 464 kts 25°
2026-04-27 20:45 59.64948 67.38567 35184 ft 463 kts 25°
2026-04-27 20:46 59.70461 67.45178 35198 ft 463 kts 25°
2026-04-27 20:46 59.75969 67.51794 35185 ft 463 kts 25°
2026-04-27 20:47 59.81478 67.58457 35178 ft 463 kts 25°
2026-04-27 20:47 59.86985 67.65138 35177 ft 463 kts 25°
2026-04-27 20:48 59.91553 67.70698 35196 ft 463 kts 25°
2026-04-27 20:48 59.97961 67.78557 35189 ft 461 kts 25°
2026-04-27 20:49 60.03396 67.85223 35179 ft 460 kts 25°
2026-04-27 20:49 60.08858 67.91931 35193 ft 460 kts 25°
2026-04-27 20:50 60.14298 67.98667 35180 ft 460 kts 25°
2026-04-27 20:50 60.19749 68.05444 35168 ft 460 kts 25°
2026-04-27 20:51 60.25198 68.12240 35193 ft 460 kts 25°
2026-04-27 20:51 60.30589 68.18984 35192 ft 458 kts 25°
2026-04-27 20:52 60.35987 68.25779 35187 ft 457 kts 25°
2026-04-27 20:52 60.41384 68.32590 35183 ft 456 kts 25°
2026-04-27 20:53 60.45863 68.38258 35180 ft 456 kts 25°
2026-04-27 20:53 60.51238 68.45084 35169 ft 456 kts 25°
2026-04-27 20:54 60.59309 68.55403 35177 ft 456 kts 25°
2026-04-27 20:55 60.64679 68.62293 35171 ft 456 kts 25°
2026-04-27 20:55 60.70051 68.69210 35171 ft 456 kts 26°
2026-04-27 20:56 60.75413 68.76148 35159 ft 456 kts 26°
2026-04-27 20:56 60.80771 68.83107 35168 ft 456 kts 26°
2026-04-27 20:57 60.86094 68.90054 35169 ft 456 kts 26°
2026-04-27 20:57 60.91452 68.97067 35197 ft 456 kts 26°
2026-04-27 20:58 60.96786 69.04092 35194 ft 455 kts 26°
2026-04-27 20:58 61.02118 69.11147 35185 ft 455 kts 27°
2026-04-27 20:59 61.07043 69.19587 35182 ft 462 kts 36°
2026-04-27 20:59 61.11826 69.28503 35177 ft 462 kts 36°
2026-04-27 21:00 61.16575 69.37388 35171 ft 462 kts 36°
2026-04-27 21:00 61.21341 69.46341 35189 ft 462 kts 35°
2026-04-27 21:01 61.26107 69.55299 35190 ft 461 kts 35°
2026-04-27 21:01 61.30846 69.64244 35193 ft 460 kts 36°
2026-04-27 21:02 61.35576 69.73238 35193 ft 461 kts 36°
2026-04-27 21:02 61.40317 69.82244 35178 ft 461 kts 36°
2026-04-27 21:03 61.45049 69.91162 35164 ft 461 kts 36°
2026-04-27 21:03 61.49787 70.00140 35194 ft 459 kts 36°
2026-04-27 21:04 61.54515 70.09148 35191 ft 458 kts 36°
2026-04-27 21:04 61.59226 70.18158 35193 ft 457 kts 36°
2026-04-27 21:05 61.60025 70.19692 35189 ft 458 kts 36°